RYR1SR LEBL-LEMH

Flight info

Callsign RYR1SR
Flight time 0h 29m
Altitude 19000
Route DUNES Q700 SARGO
Aircraft B738/M-SDE2E3FGHIRWXY/LB1

Departure

Time 2026-04-15 10:33
Airport Josep Tarradellas Barcelona-El Prat Airport (LEBL)

Arrival

Time 2026-04-15 11:02
Airport Menorca Airport (LEMH)
Time Latitude Longitude Altitude Speed Heading
2026-04-15 10:18 41.30330 2.08297 27 ft 0 kts 354°
2026-04-15 10:26 41.30324 2.08298 27 ft 2 kts 354°
2026-04-15 10:26 41.30309 2.08300 26 ft 2 kts 354°
2026-04-15 10:26 41.30294 2.08302 26 ft 2 kts 354°
2026-04-15 10:27 41.30279 2.08304 26 ft 2 kts 355°
2026-04-15 10:27 41.30264 2.08305 25 ft 2 kts 11°
2026-04-15 10:27 41.30250 2.08296 25 ft 2 kts 45°
2026-04-15 10:27 41.30245 2.08287 25 ft 1 kts 65°
2026-04-15 10:28 41.30242 2.08279 25 ft 0 kts 66°
2026-04-15 10:28 41.30248 2.08296 25 ft 5 kts 65°
2026-04-15 10:29 41.30279 2.08383 24 ft 14 kts 72°
2026-04-15 10:29 41.30196 2.08480 20 ft 23 kts 174°
2026-04-15 10:29 41.30022 2.08479 20 ft 28 kts 211°
2026-04-15 10:29 41.29863 2.08335 20 ft 27 kts 212°
2026-04-15 10:30 41.29710 2.08202 20 ft 25 kts 196°
2026-04-15 10:30 41.29545 2.08270 17 ft 25 kts 156°
2026-04-15 10:30 41.29388 2.08366 16 ft 24 kts 155°
2026-04-15 10:30 41.29231 2.08452 14 ft 23 kts 184°
2026-04-15 10:31 41.29076 2.08389 14 ft 22 kts 199°
2026-04-15 10:31 41.28931 2.08321 13 ft 21 kts 198°
2026-04-15 10:31 41.28791 2.08260 13 ft 20 kts 199°
2026-04-15 10:31 41.28721 2.08307 13 ft 16 kts 75°
2026-04-15 10:32 41.28761 2.08436 15 ft 13 kts 69°
2026-04-15 10:32 41.28790 2.08491 16 ft 5 kts 15°
2026-04-15 10:32 41.28807 2.08498 16 ft 0 kts 18°
2026-04-15 10:32 41.28869 2.08526 16 ft 36 kts 19°
2026-04-15 10:33 41.29380 2.08759 15 ft 116 kts 19°
2026-04-15 10:33 41.30340 2.09199 146 ft 167 kts 20°
2026-04-15 10:33 41.31425 2.09714 860 ft 175 kts 25°
2026-04-15 10:33 41.32332 2.10825 1525 ft 189 kts 64°
2026-04-15 10:34 41.32553 2.12577 2130 ft 204 kts 96°
2026-04-15 10:34 41.32172 2.14414 2875 ft 213 kts 111°
2026-04-15 10:34 41.31636 2.16233 3770 ft 215 kts 110°
2026-04-15 10:34 41.31098 2.18078 4506 ft 224 kts 111°
2026-04-15 10:35 41.30441 2.20025 5109 ft 240 kts 114°
2026-04-15 10:35 41.29696 2.22113 5755 ft 257 kts 114°
2026-04-15 10:35 41.28927 2.24317 6417 ft 272 kts 113°
2026-04-15 10:35 41.28140 2.26626 7209 ft 281 kts 112°
2026-04-15 10:36 41.27338 2.28993 8140 ft 284 kts 112°
2026-04-15 10:36 41.26526 2.31390 9018 ft 289 kts 111°
2026-04-15 10:36 41.25708 2.33800 9878 ft 293 kts 111°
2026-04-15 10:36 41.24867 2.36273 10657 ft 300 kts 111°
2026-04-15 10:37 41.23898 2.38786 11212 ft 317 kts 117°
2026-04-15 10:37 41.22686 2.41351 11727 ft 334 kts 120°
2026-04-15 10:37 41.21362 2.43972 12255 ft 349 kts 121°
2026-04-15 10:37 41.20012 2.46649 13032 ft 355 kts 120°
2026-04-15 10:38 41.18651 2.49390 13836 ft 358 kts 120°
2026-04-15 10:38 41.17308 2.52139 14595 ft 363 kts 119°
2026-04-15 10:38 41.15925 2.54994 15376 ft 367 kts 118°
2026-04-15 10:38 41.14573 2.57793 16289 ft 364 kts 118°
2026-04-15 10:39 41.13227 2.60582 17153 ft 363 kts 117°
2026-04-15 10:39 41.11873 2.63387 17975 ft 363 kts 117°
2026-04-15 10:39 41.10514 2.66202 18753 ft 362 kts 117°
2026-04-15 10:39 41.09146 2.69037 19117 ft 372 kts 117°
2026-04-15 10:40 41.07742 2.71958 19160 ft 389 kts 117°
2026-04-15 10:40 41.06240 2.75078 19191 ft 408 kts 118°
2026-04-15 10:40 41.04693 2.78285 19173 ft 426 kts 118°
2026-04-15 10:40 41.03068 2.81639 19178 ft 441 kts 118°
2026-04-15 10:41 41.01380 2.85111 19172 ft 446 kts 118°
2026-04-15 10:41 40.99709 2.88530 19172 ft 449 kts 118°
2026-04-15 10:41 40.98022 2.91974 19165 ft 447 kts 118°
2026-04-15 10:41 40.96315 2.95452 19159 ft 446 kts 118°
2026-04-15 10:42 40.94651 2.98845 19155 ft 447 kts 118°
2026-04-15 10:42 40.92952 3.02308 19155 ft 447 kts 118°
2026-04-15 10:42 40.91266 3.05745 19159 ft 446 kts 118°
2026-04-15 10:42 40.89586 3.09166 19157 ft 446 kts 118°
2026-04-15 10:43 40.87853 3.12540 19154 ft 448 kts 121°
2026-04-15 10:43 40.85843 3.15743 19155 ft 454 kts 130°
2026-04-15 10:43 40.83440 3.18420 19159 ft 457 kts 140°
2026-04-15 10:43 40.80813 3.20789 19159 ft 461 kts 143°
2026-04-15 10:44 40.78063 3.23041 19157 ft 461 kts 145°
2026-04-15 10:44 40.75338 3.25179 19157 ft 460 kts 146°
2026-04-15 10:44 40.72565 3.27328 19161 ft 462 kts 146°
2026-04-15 10:44 40.69795 3.29493 19159 ft 461 kts 146°
2026-04-15 10:45 40.67065 3.31650 19161 ft 463 kts 145°
2026-04-15 10:45 40.64315 3.33839 19163 ft 461 kts 145°
2026-04-15 10:45 40.61562 3.36047 19166 ft 461 kts 145°
2026-04-15 10:45 40.58851 3.38233 19164 ft 460 kts 144°
2026-04-15 10:46 40.56113 3.40449 19168 ft 462 kts 144°
2026-04-15 10:46 40.53410 3.42639 19163 ft 461 kts 144°
2026-04-15 10:46 40.50658 3.44871 19165 ft 460 kts 144°
2026-04-15 10:46 40.47941 3.47073 19162 ft 460 kts 144°
2026-04-15 10:47 40.45255 3.49251 19164 ft 458 kts 144°
2026-04-15 10:47 40.42585 3.51407 19163 ft 438 kts 144°
2026-04-15 10:47 40.40043 3.53453 19165 ft 418 kts 144°
2026-04-15 10:47 40.37642 3.55384 19064 ft 402 kts 144°
2026-04-15 10:48 40.35261 3.57304 18759 ft 393 kts 144°
2026-04-15 10:48 40.32981 3.59146 18327 ft 384 kts 144°
2026-04-15 10:48 40.30747 3.60952 17866 ft 375 kts 144°
2026-04-15 10:48 40.28538 3.62736 17394 ft 365 kts 144°
2026-04-15 10:49 40.26409 3.64453 16944 ft 357 kts 144°
2026-04-15 10:49 40.24318 3.66139 16498 ft 349 kts 144°
2026-04-15 10:49 40.22283 3.67776 16059 ft 342 kts 145°
2026-04-15 10:49 40.20284 3.69384 15636 ft 334 kts 144°
2026-04-15 10:50 40.18321 3.70962 15215 ft 328 kts 144°
2026-04-15 10:50 40.16420 3.72487 14818 ft 322 kts 144°
2026-04-15 10:50 40.14522 3.74010 14291 ft 320 kts 145°
2026-04-15 10:50 40.12630 3.75528 13751 ft 318 kts 145°
2026-04-15 10:51 40.10729 3.77052 13262 ft 315 kts 145°
2026-04-15 10:51 40.08894 3.78520 12773 ft 313 kts 145°
2026-04-15 10:51 40.07054 3.79990 12334 ft 308 kts 146°
2026-04-15 10:51 40.05225 3.81450 11829 ft 306 kts 146°
2026-04-15 10:52 40.03417 3.82893 11337 ft 303 kts 146°
2026-04-15 10:52 40.01636 3.84314 10815 ft 303 kts 146°
2026-04-15 10:52 39.99840 3.85747 10207 ft 305 kts 146°
2026-04-15 10:52 39.98014 3.87157 9712 ft 303 kts 149°
2026-04-15 10:53 39.96152 3.88389 9234 ft 301 kts 152°
2026-04-15 10:53 39.94295 3.89538 8748 ft 298 kts 152°
2026-04-15 10:53 39.92406 3.90690 8236 ft 297 kts 152°
2026-04-15 10:53 39.90546 3.91823 7700 ft 296 kts 152°
2026-04-15 10:54 39.88685 3.92953 7191 ft 295 kts 152°
2026-04-15 10:54 39.86845 3.94068 6722 ft 293 kts 152°
2026-04-15 10:54 39.85018 3.95181 6375 ft 290 kts 152°
2026-04-15 10:54 39.83257 3.96458 5851 ft 287 kts 141°
2026-04-15 10:55 39.81764 3.98077 5576 ft 274 kts 133°
2026-04-15 10:55 39.80414 3.99726 5413 ft 261 kts 133°
2026-04-15 10:55 39.78943 4.01016 5257 ft 256 kts 159°
2026-04-15 10:55 39.77228 4.01532 5027 ft 250 kts 165°
2026-04-15 10:56 39.75612 4.02271 4875 ft 237 kts 154°
2026-04-15 10:56 39.74240 4.03263 4808 ft 216 kts 133°
2026-04-15 10:56 39.73475 4.04860 4391 ft 207 kts 102°
2026-04-15 10:56 39.73041 4.06549 4262 ft 194 kts 101°
2026-04-15 10:57 39.72595 4.08174 4009 ft 190 kts 103°
2026-04-15 10:57 39.71684 4.11378 3401 ft 189 kts 102°
2026-04-15 10:57 39.71557 4.12997 3067 ft 172 kts 62°
2026-04-15 10:58 39.72171 4.14177 2974 ft 148 kts 40°
2026-04-15 10:58 39.72829 4.15189 2715 ft 150 kts 42°
2026-04-15 10:58 39.73494 4.16243 2488 ft 147 kts 43°
2026-04-15 10:58 39.74139 4.17250 2268 ft 145 kts 43°
2026-04-15 10:59 39.74767 4.18256 2030 ft 144 kts 43°
2026-04-15 10:59 39.75379 4.19252 1778 ft 134 kts 39°
2026-04-15 10:59 39.76130 4.19724 1553 ft 117 kts
2026-04-15 10:59 39.76964 4.19865 1592 ft 130 kts 11°
2026-04-15 11:00 39.77835 4.20158 1588 ft 127 kts
2026-04-15 11:00 39.78718 4.20335 1550 ft 130 kts
2026-04-15 11:00 39.79607 4.20517 1367 ft 127 kts
2026-04-15 11:00 39.80489 4.20737 1212 ft 128 kts 12°
2026-04-15 11:01 39.81362 4.20915 1043 ft 130 kts 359°
2026-04-15 11:01 39.82286 4.21035 860 ft 134 kts 10°
2026-04-15 11:01 39.83167 4.21235 659 ft 129 kts
2026-04-15 11:01 39.84098 4.21435 501 ft 138 kts
2026-04-15 11:02 39.85046 4.21618 293 ft 135 kts
2026-04-15 11:02 39.85829 4.21780 285 ft 80 kts
2026-04-15 11:02 39.86153 4.21849 288 ft 20 kts 15°
2026-04-15 11:02 39.86212 4.21975 286 ft 19 kts 104°
2026-04-15 11:03 39.86190 4.22161 279 ft 22 kts 99°
2026-04-15 11:03 39.86254 4.22279 277 ft 19 kts 359°
2026-04-15 11:03 39.86360 4.22295 276 ft 9 kts
2026-04-15 11:03 39.86375 4.22356 275 ft 9 kts 100°
2026-04-15 11:04 39.86371 4.22396 274 ft 0 kts 98°